Meteopurmerend
purmerend
Purmerend - Baaienwijk



My webcam  My webcam


waarschuwing voor Onweer Meer informatie blitzortung!


Regen radar Meer informatie rain snow radar


Bezoek onze andere website:

CandyAppleRed WebdesignWebdesign Purmerend Candy Apple Red

MeteopurmerendBlog

Template documentation
and downloads



Onweer van: 26-07-2021 10:00 tot: 21:00 waarschuwing voor: Onweer niveau: Geel info button
Enkele onweersbuien, lokaal met hagel en veel neerslag in korte tijd.Kans op blikseminslag, hagel en veel neerslag in korte tijd.Verkeer en buitenactiviteiten kunnen hinder ondervinden.Mijd open water en open gebied, schuil niet onder bomen.Volg weerberichten en waarschuwingen.

15 daagse weersverwachting Leonding (AT)

  • Overzicht
  • Per uur
  • 15 dagen
  • Extra
  • Vergelijk
  • Kaarten
  • Dagkaart
  • Meer »
  • Info
  • Statistieken
  • Directe link
    Temp 6h Neerslag Wind  
 05:33     20:47    Daglengte: 15:14 Vandaag
20:00
24°
 
3
 05:34     20:46    Daglengte: 15:12 Morgen
02:00
20°
22.7 mm
3
08:00
20°
 
2
14:00
26°
 
1
20:00
25°
 
1
 05:35     20:44    Daglengte: 15:09 Woensdag 28 Jul
02:00
19°
 
1
08:00
20°
17.3 mm
1
warningclass
14:00
25°
43.0 mm
4
20:00
20°
28.7 mm
2
 05:37     20:43    Daglengte: 15:06 Donderdag 29 Jul
02:00
17°
 
2
08:00
17°
 
1
Locatie info
Region: Oberösterreich
Latitude: 48.2792°N
Longitude: 14.2492°E
289 masl
Postcode: 4060
Temp/Neerslag /Baro Onweer/Dauwpunt
    Temp Baro 1h Neerslag Dauwpunt Wind UV Bewolking  
 05:33     20:47    Daglengte: 15:14 Vandaag
15:00
28°
1011.1 hPa   17.1°
2
Windvlaag: 3.3 m/s
15%
16:00
28°
1010.7 hPa
25%
17.3°
2
Windvlaag: 5.9 m/s
27%
17:00
27°
1010.4 hPa
78%
17.2°
3
Windvlaag: 6.7 m/s
38%
18:00
26°
1010.2 hPa
82%
18.5°
3
Windvlaag: 7 m/s
36% warningclass
19:00
25°
1010.7 hPa
82%
19.8°
2
Windvlaag: 4.6 m/s
30%
20:00
24°
1011.0 hPa
37%
20.0°
3
Windvlaag: 1 m/s
60%
21:00
23°
1011.5 hPa
26%
19.9°
2
Windvlaag: 0.5 m/s
42%
22:00
22°
1012.2 hPa 7.6 mm
70%
19.7°
2
Windvlaag: 0.3 m/s
72%
23:00
21°
1012.7 hPa 7.7 mm
79%
19.5°
2
Windvlaag: 0.2 m/s
42%
 05:34     20:46    Daglengte: 15:12 Morgen
00:00
21°
1013.2 hPa 7.4 mm
75%
19.3°
2
Windvlaag: 0.9 m/s
56%
01:00
20°
1013.6 hPa
62%
19.5°
3
Windvlaag: 1.5 m/s
69%
02:00
20°
1013.8 hPa
15%
19.2°
3
Windvlaag: 1.2 m/s
65%
03:00
19°
1014.1 hPa
14%
18.6°
2
Windvlaag: -0 m/s
56%
04:00
19°
1014.4 hPa
14%
18.1°
2
Windvlaag: -0.6 m/s
57%
05:00
19°
1014.7 hPa
17%
17.9°
2
Windvlaag: 0 m/s
75%
06:00
18°
1015.1 hPa
17%
17.8°
2
Windvlaag: 0.1 m/s
81%
07:00
19°
1015.5 hPa
18%
18.1°
2
Windvlaag: 0.9 m/s
51%
08:00
20°
1015.8 hPa
16%
18.3°
2
Windvlaag: 0.8 m/s
51%
09:00
20°
1016.0 hPa
14%
18.5°
2
Windvlaag: 0.8 m/s
43%
10:00
21°
1016.0 hPa
14%
18.8°
2
Windvlaag: 0.7 m/s
84%
11:00
22°
1015.8 hPa
14%
18.7°
2
Windvlaag: 1.7 m/s
58%
12:00
23°
1015.6 hPa
14%
18.1°
1
Windvlaag: 3.7 m/s
33%
13:00
25°
1014.8 hPa
14%
17.3°
1
Windvlaag: 3 m/s
21%
14:00
26°
1014.1 hPa
14%
17.0°
1
Windvlaag: 1.5 m/s
19%
15:00
26°
1013.4 hPa
14%
16.8°
1
Windvlaag: 2.2 m/s
13%
16:00
27°
1012.9 hPa
14%
16.9°
1
Windvlaag: 3.1 m/s
12%
17:00
27°
1012.5 hPa
14%
17.2°
1
Windvlaag: 1.8 m/s
11%
18:00
27°
1012.5 hPa
14%
17.3°
1
Windvlaag: 1.3 m/s
14%
19:00
27°
1012.4 hPa
14%
16.7°
1
Windvlaag: 1.6 m/s
20%
20:00
25°
1012.6 hPa
14%
17.9°
1
Windvlaag: 0.1 m/s
22%
21:00
24°
1013.0 hPa
14%
18.9°
1
Windvlaag: 0.7 m/s
29%
22:00
23°
1013.4 hPa
14%
19.0°
1
Windvlaag: 0.4 m/s
46%
23:00
22°
1013.7 hPa
14%
19.1°
1
Windvlaag: 0.2 m/s
23%
 05:35     20:44    Daglengte: 15:09 Woensdag 28 Jul
00:00
21°
1013.9 hPa
14%
19.2°
1
Windvlaag: -0.3 m/s
24%
01:00
20°
1013.5 hPa
14%
18.8°
1
Windvlaag: 0.5 m/s
71%
02:00
19°
1013.3 hPa
14%
18.5°
1
Windvlaag: 1.3 m/s
65%
03:00
19°
1013.3 hPa
14%
18.1°
1
Windvlaag: 1.6 m/s
57%
04:00
19°
1013.1 hPa
14%
18.0°
1
Windvlaag: 0.4 m/s
56%
05:00
18°
1013.1 hPa
14%
17.9°
1
Windvlaag: -0.3 m/s
49%
06:00
18°
1013.3 hPa
14%
17.4°
1
Windvlaag: -0 m/s
50%
07:00
19°
1014.1 hPa 8.5 mm
81%
17.7°
1
Windvlaag: 0.8 m/s
80% warningclass
08:00
20°
1014.4 hPa 8.8 mm
82%
17.9°
1
Windvlaag: -0.2 m/s
80% warningclass
09:00
21°
1014.9 hPa 8.6 mm
82%
17.1°
1
Windvlaag: -0.4 m/s
78% warningclass
10:00
22°
1014.9 hPa 7.9 mm
82%
17.0°
2
Windvlaag: 0.6 m/s
58%
11:00
22°
1014.0 hPa 13.3 mm
88%
15.3°
3
Windvlaag: 0 m/s
62%
12:00
23°
1014.1 hPa
94%
15.8°
3
Windvlaag: 1.1 m/s
64%
13:00
24°
1013.7 hPa 13.2 mm
34%
15.6°
4
Windvlaag: 0.2 m/s
50%
14:00
25°
1013.5 hPa
28%
15.6°
4
Windvlaag: -0.6 m/s
66%
15:00
24°
1013.5 hPa
83%
14.9°
4
Windvlaag: -1.3 m/s
74%
16:00
23°
1013.9 hPa
93%
19.2°
5
Windvlaag: -0.9 m/s
96%
17:00
22°
1014.4 hPa
98%
17.5°
5
Windvlaag: -0.5 m/s
90%
18:00
21°
1014.7 hPa 14.2 mm
57%
17.0°
4
Windvlaag: -0.1 m/s
93%
19:00
20°
1015.0 hPa 14.5 mm
100%
15.4°
3
Windvlaag: -1.6 m/s
89%
20:00
20°
1015.2 hPa
38%
15.6°
2
Windvlaag: -2.5 m/s
84%
21:00
19°
1015.5 hPa
22%
15.3°
2
Windvlaag: -1.3 m/s
65%
22:00
18°
1015.7 hPa
21%
15.3°
1
Windvlaag: -0.3 m/s
40%
23:00
18°
1015.6 hPa
21%
15.3°
2
Windvlaag: -1 m/s
52%
 05:37     20:43    Daglengte: 15:06 Donderdag 29 Jul
00:00
18°
1015.7 hPa
21%
14.9°
2
Windvlaag: -1.3 m/s
42%
01:00
17°
1015.5 hPa
21%
14.1°
2
Windvlaag: -1.9 m/s
14%
02:00
17°
1015.0 hPa
21%
14.1°
2
Windvlaag: -1.9 m/s
35%
03:00
16°
1014.9 hPa
21%
13.8°
1
Windvlaag: -1.4 m/s
17%
04:00
16°
1014.9 hPa
21%
13.3°
1
Windvlaag: -0.1 m/s
22%
05:00
16°
1014.9 hPa
21%
12.9°
1
Windvlaag: 0.1 m/s
26%
06:00
15°
1015.0 hPa
21%
12.8°
1
Windvlaag: 0.1 m/s
43%
07:00
16°
1015.1 hPa
21%
12.0°
1
Windvlaag: -0.2 m/s
40%
08:00
17°
1015.1 hPa
21%
12.0°
1
Windvlaag: 0.4 m/s
27%
09:00
19°
1015.6 hPa
21%
12.4°
1
Windvlaag: 4.1 m/s
12%
10:00
21°
1015.1 hPa
21%
12.5°
0
Windvlaag: 3.2 m/s
10%
11:00
23°
1014.9 hPa
21%
13.6°
1
Windvlaag: 1.9 m/s
6%
12:00
24°
1014.5 hPa
21%
13.7°
1
Windvlaag: 3.7 m/s
4%
13:00
26°
1014.0 hPa
21%
13.9°
2
Windvlaag: 4.4 m/s
1%
14:00
26°
1013.4 hPa
21%
13.5°
3
Windvlaag: 5 m/s
6%
Temp/Neerslag /Baro Onweer/Dauwpunt
    Temp Baro Neerslag Dauwpunt Wind Bewolking  
 05:33     20:47    Daglengte: 15:14 Vandaag
17:00
27°
1010.4 hPa   17.2°
3
38%
20:00
24°
1011.0 hPa   20.0°
3
60%
23:00
21°
1012.7 hPa 15.3 mm 19.5°
2
42%
 05:34     20:46    Daglengte: 15:12 Morgen
02:00
20°
1013.8 hPa 7.4 mm 19.2°
3
65%
05:00
19°
1014.7 hPa   17.9°
2
75%
08:00
20°
1015.8 hPa   18.3°
2
51%
11:00
22°
1015.8 hPa   18.7°
2
58%
14:00
26°
1014.1 hPa   17.0°
1
19%
17:00
27°
1012.5 hPa   17.2°
1
11%
20:00
25°
1012.6 hPa   17.9°
1
22%
23:00
22°
1013.7 hPa   19.1°
1
23%
 05:35     20:44    Daglengte: 15:09 Woensdag 28 Jul
02:00
19°
1013.3 hPa   18.5°
1
65%
05:00
18°
1013.1 hPa   17.9°
1
49%
08:00
20°
1014.4 hPa 17.3 mm 17.9°
1
80% warningclass
11:00
22°
1014.0 hPa 29.8 mm 15.3°
3
62%
14:00
25°
1013.5 hPa 13.2 mm 15.6°
4
66%
17:00
22°
1014.4 hPa   17.5°
5
90%
20:00
20°
1015.2 hPa 28.7 mm 15.6°
2
84%
23:00
18°
1015.6 hPa   15.3°
2
52%
 05:37     20:43    Daglengte: 15:06 Donderdag 29 Jul
02:00
17°
1015.0 hPa   14.1°
2
35%
05:00
16°
1014.9 hPa   12.9°
1
26%
08:00
17°
1015.1 hPa   12.0°
1
27%
11:00
23°
1014.9 hPa   13.6°
1
6%
14:00
26°
1013.4 hPa   13.5°
3
6%
17:00
28°
1010.7 hPa 15.8 mm 16.3°
2
0%
20:00
23°
1010.6 hPa 15.8 mm 18.4°
3
0%
23:00
19°
1014.2 hPa 21.2 mm 18.1°
3
1%
 05:38     20:42    Daglengte: 15:04 Vrijdag 30 Jul
02:00
17°
1015.1 hPa 28.9 mm 16.9°
2
1%
05:00
16°
1015.3 hPa 30.4 mm 15.0°
3
1%
08:00
17°
1015.2 hPa 30.4 mm 15.2°
2
1%
11:00
20°
1014.8 hPa 30.4 mm 13.4°
3
1%
14:00
23°
1013.0 hPa 30.5 mm 15.8°
3
1%
17:00
23°
1012.5 hPa 31.0 mm 16.3°
3
1%
20:00
19°
1012.6 hPa 31.2 mm 16.7°
3
1%
23:00
17°
1014.0 hPa 31.9 mm 16.0°
2
1%
 05:39     20:40    Daglengte: 15:01 Zaterdag 31 Jul
02:00
15°
1013.6 hPa 31.9 mm 14.3°
1
1%
05:00
14°
1013.2 hPa 31.9 mm 12.7°
1
1%
08:00
17°
1013.0 hPa 31.9 mm 13.4°
1
1%
11:00
22°
1012.5 hPa 31.9 mm 12.7°
3
1%
14:00
19°
1012.6 hPa 32.2 mm 14.0°
3
1%
17:00
21°
1011.8 hPa 32.5 mm 14.4°
2
1%
20:00
18°
1011.0 hPa 32.5 mm 14.4°
2
1%
23:00
14°
1011.1 hPa 32.5 mm 12.5°
1
0%
 05:40     20:39    Daglengte: 14:59 Zondag 01 Aug
02:00
14°
1011.4 hPa 35.2 mm 13.8°
2
1%
05:00
14°
1010.1 hPa 37.7 mm 13.7°
1
1%
08:00
14°
1009.8 hPa 39.3 mm 14.2°
1
1%
11:00
14°
1010.1 hPa 50.3 mm 14.0°
3
1%
14:00
16°
1011.5 hPa 56.4 mm 14.7°
3
1%
17:00
17°
1011.8 hPa 58.4 mm 14.8°
4
1%
20:00
16°
1011.7 hPa 60.0 mm 14.6°
5
1%
23:00
14°
1014.2 hPa 60.6 mm 12.8°
3
0%
 05:42     20:37    Daglengte: 14:55 Maandag 02 Aug
02:00
12°
1015.1 hPa 60.6 mm 11.5°
2
0%
05:00
11°
1015.6 hPa 60.6 mm 10.4°
2
0%
08:00
14°
1016.3 hPa 60.6 mm 12.6°
2
0%
11:00
19°
1015.8 hPa 60.6 mm 13.4°
3
0%
14:00
22°
1014.1 hPa 121.3 mm 13.3°
2
0%
20:00
19°
1013.1 hPa 121.3 mm 14.2°
1
1%
 05:43     20:36    Daglengte: 14:53 Dinsdag 03 Aug
02:00
15°
1014.0 hPa 121.8 mm 12.8°
1
1%
08:00
15°
1014.4 hPa 129.0 mm 14.3°
1
1%
14:00
16°
1015.5 hPa 145.1 mm 14.3°
3
1%
20:00
16°
1014.2 hPa 152.0 mm 13.7°
1
1%
 05:44     20:34    Daglengte: 14:50 Woensdag 04 Aug
02:00
12°
1015.8 hPa 152.1 mm 10.7°
1
0%
08:00
14°
1014.4 hPa 152.1 mm 12.1°
1
1%
14:00
20°
1012.8 hPa 152.1 mm 13.1°
2
1%
20:00
17°
1012.5 hPa 152.2 mm 13.9°
2
1%
 05:46     20:33    Daglengte: 14:47 Donderdag 05 Aug
02:00
12°
1014.5 hPa 152.2 mm 11.2°
0
0%
08:00
17°
1016.2 hPa 0.6 mm 14.2°
1
62%
14:00
24°
1014.4 hPa 0.8 mm 14.9°
2
69%
20:00
19°
1014.3 hPa 1.8 mm 15.4°
1
69%
 05:47     20:31    Daglengte: 14:44 Vrijdag 06 Aug
02:00
15°
1015.1 hPa 1.0 mm 13.7°
1
72%
08:00
17°
1014.9 hPa 0.6 mm 14.3°
1
75%
14:00
21°
1013.8 hPa 1.8 mm 15.1°
2
73%
20:00
18°
1013.9 hPa 3.4 mm 14.6°
2
65%
 05:48     20:30    Daglengte: 14:42 Zaterdag 07 Aug
02:00
15°
1015.4 hPa 2.9 mm 13.3°
2
71%
08:00
15°
1015.4 hPa 1.5 mm 13.7°
2
79%
14:00
20°
1014.2 hPa 2.3 mm 14.4°
2
78%
20:00
17°
1014.6 hPa 2.0 mm 14.1°
2
65%
 05:50     20:28    Daglengte: 14:38 Zondag 08 Aug
02:00
14°
1016.4 hPa 1.4 mm 12.4°
2
70%
08:00
15°
1016.4 hPa 0.7 mm 13.2°
2
63%
14:00
21°
1015.2 hPa   13.9°
2
68%
20:00
18°
1015.8 hPa 1.1 mm 14.1°
1
58%
 05:51     20:26    Daglengte: 14:35 Maandag 09 Aug
02:00
14°
1017.8 hPa 0.4 mm 12.3°
1
59%
08:00
16°
1018.2 hPa 0.6 mm 13.3°
1
63%
14:00
23°
1017.3 hPa 1.1 mm 14.2°
2
56%
20:00
18°
1017.8 hPa 1.3 mm 14.8°
1
37%
 05:52     20:25    Daglengte: 14:33 Dinsdag 10 Aug
02:00
14°
1019.8 hPa 0.6 mm 12.6°
1
39%
08:00
16°
1019.8 hPa 0.4 mm 13.7°
1
44%
14:00
23°
1018.3 hPa 0.7 mm 14.3°
2
48%
  CAPE Lifted Index Hail Supercell Tornado SRH 3km CL BTM PRES CL TOP PRES Swiss DWD icon SMHI TS
 05:33     20:47    Daglengte: 15:14 Vandaag
15:00 1531 J/kg -5.7 K 0 % 0 % 0 % 0 m²/s² 0 0 -4.68 3
16:00 1945 J/kg -7.8 K 0 % 0 % 0 % 0 m²/s² 0 0 -7.26 3
17:00 1821 J/kg -8.5 K 0 % 0 % 0 % 0 m²/s² 0 0 -8.32 80
18:00 196 J/kg -1.3 K 0 % 0 % 0 % 0 m²/s² 0 0 -1.12 95
19:00 0 J/kg 0.8 K 0 % 0 % 0 % 0 m²/s² 0 0 0.98 80
20:00 0 J/kg -0.1 K 0 % 0 % 0 % 0 m²/s² 0 0 0.44 3
21:00 0 J/kg -0.1 K 0 % 0 % 0 % 0 m²/s² 0 0 -0.07 3
22:00 4 J/kg 0.1 K 0 % 0 % 0 % 0 m²/s² 0 0 0.22 3
23:00 0 J/kg 1.4 K 0 % 0 % 0 % 0 m²/s² 0 0 1.52 3
 05:34     20:46    Daglengte: 15:12 Morgen
00:00 0 J/kg 0.8 K 0 % 0 % 0 % 0 m²/s² 0 0 1.01 3
01:00 0 J/kg 1.4 K 0 % 0 % 0 % 0 m²/s² 0 0 1.49 3
02:00 0 J/kg 1.9 K 0 % 0 % 0 % 0 m²/s² 0 0 2.53 3
03:00 0 J/kg 2.0 K 0 % 0 % 0 % 0 m²/s² 0 0 3.11 3
04:00 0 J/kg 1.7 K 0 % 0 % 0 % 0 m²/s² 0 0 3.32 3
05:00 0 J/kg 1.1 K 0 % 0 % 0 % 0 m²/s² 0 0 2.78 3
06:00 0 J/kg 0.7 K 0 % 0 % 0 % 0 m²/s² 0 0 3.1 3
07:00 0 J/kg 0.5 K 0 % 0 % 0 % 0 m²/s² 0 0 3.2 3
08:00 0 J/kg 0.9 K 0 % 0 % 0 % 0 m²/s² 0 0 4.02 3
09:00 0 J/kg 0.7 K 0 % 0 % 0 % 0 m²/s² 0 0 4.09 3
10:00 75 J/kg -0.4 K 0 % 0 % 0 % 0 m²/s² 0 0 3.08 3
11:00 230 J/kg -1.0 K 0 % 0 % 0 % 0 m²/s² 0 0 2.75 3
12:00 406 J/kg -1.7 K 0 % 0 % 0 % 0 m²/s² 0 0 1.6 3
13:00 364 J/kg -1.9 K 0 % 0 % 0 % 0 m²/s² 0 0 1.31 3
14:00 334 J/kg -1.9 K 0 % 0 % 0 % 0 m²/s² 0 0 0.23 3
15:00 382 J/kg -2.6 K 0 % 0 % 0 % 0 m²/s² 0 0 -0.59 0
16:00 572 J/kg -3.2 K 0 % 0 % 0 % 0 m²/s² 0 0 -1.34 0
17:00 598 J/kg -4.1 K 0 % 0 % 0 % 0 m²/s² 0 0 -2.48 0
18:00 635 J/kg -4.6 K 0 % 0 % 0 % 0 m²/s² 0 0 -3.31 1
19:00 784 J/kg -4.3 K 0 % 0 % 0 % 0 m²/s² 0 0 -3.94 2
20:00 1021 J/kg -3.4 K 0 % 0 % 0 % 0 m²/s² 0 0 -3.22 1
21:00 313 J/kg -4.0 K 0 % 0 % 0 % 0 m²/s² 0 0 -3.31 3
22:00 63 J/kg -4.1 K 0 % 0 % 0 % 0 m²/s² 0 0 -2.69 3
23:00 0 J/kg -3.3 K 0 % 0 % 0 % 0 m²/s² 0 0 -1.53 2
 05:35     20:44    Daglengte: 15:09 Woensdag 28 Jul
00:00 22 J/kg -2.9 K 0 % 0 % 0 % 0 m²/s² 0 0 -2.03 2
01:00 10 J/kg -3.0 K 0 % 0 % 0 % 0 m²/s² 0 0 -2.46 3
02:00 0 J/kg -1.8 K 0 % 0 % 0 % 0 m²/s² 0 0 -0.78 3
03:00 0 J/kg -0.6 K 0 % 0 % 0 % 0 m²/s² 0 0 0.48 3
04:00 0 J/kg -0.4 K 0 % 0 % 0 % 0 m²/s² 0 0 0.74 3
05:00 0 J/kg -0.6 K 0 % 0 % 0 % 0 m²/s² 0 0 0.48 3
06:00 0 J/kg -0.9 K 0 % 0 % 0 % 0 m²/s² 0 0 0.57 3
07:00 0 J/kg -0.4 K 0 % 0 % 0 % 0 m²/s² 0 0 0.89 95
08:00 0 J/kg -0.6 K 0 % 0 % 0 % 0 m²/s² 0 0 0.96 95
09:00 0 J/kg -0.6 K 0 % 0 % 0 % 0 m²/s² 0 0 1.29 95
10:00 293 J/kg -1.4 K 0 % 0 % 0 % 0 m²/s² 0 0 1.03 3
11:00 512 J/kg -2.3 K 0 % 0 % 0 % 0 m²/s² 0 0 0.52 3
12:00 778 J/kg -2.8 K 0 % 0 % 0 % 0 m²/s² 0 0 -0.52 3
13:00 815 J/kg -3.0 K 0 % 0 % 0 % 0 m²/s² 0 0 -1.26 3
14:00 701 J/kg -2.8 K 0 % 0 % 0 % 0 m²/s² 0 0 -1.33 3
15:00 602 J/kg -2.2 K 0 % 0 % 0 % 0 m²/s² 0 0 -1.66 3
16:00 0 J/kg 0.9 K 0 % 0 % 0 % 0 m²/s² 0 0 0.9 3
17:00 0 J/kg 0.8 K 0 % 0 % 0 % 0 m²/s² 0 0 1.01 3
18:00 0 J/kg -0.5 K 0 % 0 % 0 % 0 m²/s² 0 0 1 3
19:00 45 J/kg -1.0 K 0 % 0 % 0 % 0 m²/s² 0 0 -0.31 61
20:00 36 J/kg -0.5 K 0 % 0 % 0 % 0 m²/s² 0 0 0.73 3
21:00 0 J/kg -0.1 K 0 % 0 % 0 % 0 m²/s² 0 0 1.97 2
22:00 0 J/kg 0.4 K 0 % 0 % 0 % 0 m²/s² 0 0 2.74 1
23:00 0 J/kg 1.0 K 0 % 0 % 0 % 0 m²/s² 0 0 2.23 1
 05:37     20:43    Daglengte: 15:06 Donderdag 29 Jul
00:00 0 J/kg 0.5 K 0 % 0 % 0 % 0 m²/s² 0 0 0.89 0
01:00 0 J/kg 0.4 K 0 % 0 % 0 % 0 m²/s² 0 0 0.79 1
02:00 0 J/kg 0.4 K 0 % 0 % 0 % 0 m²/s² 0 0 0.61 3
03:00 0 J/kg -0.2 K 0 % 0 % 0 % 0 m²/s² 0 0 0.82 45
04:00 0 J/kg -0.3 K 0 % 0 % 0 % 0 m²/s² 0 0 0.39 45
05:00 0 J/kg -0.6 K 0 % 0 % 0 % 0 m²/s² 0 0 -0.33 45
06:00 0 J/kg -0.7 K 0 % 0 % 0 % 0 m²/s² 0 0 0.14 45
07:00 0 J/kg -0.8 K 0 % 0 % 0 % 0 m²/s² 0 0 0.34 45
08:00 0 J/kg -1.1 K 0 % 0 % 0 % 0 m²/s² 0 0 -0.14 45
09:00 0 J/kg -1.0 K 0 % 0 % 0 % 0 m²/s² 0 0 0.23 1
10:00 0 J/kg -0.9 K 0 % 0 % 0 % 0 m²/s² 0 0 0.39 1
11:00 152 J/kg -1.3 K 0 % 0 % 0 % 0 m²/s² 0 0 0.11 1
12:00 408 J/kg -2.1 K 0 % 0 % 0 % 0 m²/s² 0 0 -0.45 2
13:00 598 J/kg -2.3 K 0 % 0 % 0 % 0 m²/s² 0 0 -0.59 2
14:00 750 J/kg -2.5 K 0 % 0 % 0 % 0 m²/s² 0 0 -1.21 1
Temp Baro Wind Neerslag
  EWN Forecast EWN WRFDA DWD ICON FMI HIRLAM MET Norway GFS
 05:33     20:47    Daglengte: 15:14 Vandaag
17:00 26.5° 1010.4 hPa 3.2 m/s 0.0 mm 26.8° 1005.9 hPa 8.7 m/s 1.1 mm 24.8° 1011.1 hPa 4.8 m/s 0.7 mm 28.7° 1010.6 hPa 2.5 m/s 0.0 mm 26.3° 1010.3 hPa 2.6 m/s
20:00 24.0° 1011.0 hPa 2.7 m/s 0.0 mm 19.8° 1012.0 hPa 3.8 m/s 85.0 mm 21.7° 1011.6 hPa 2.6 m/s 3.4 mm 25.6° 1010.1 hPa 3.5 m/s 0.0 mm 21.3° 1011.0 hPa 1.1 m/s
23:00 21.2° 1012.7 hPa 2.1 m/s 15.3 mm 18.6° 1013.1 hPa 3.7 m/s 106.8 mm 20.3° 1013.8 hPa 2.4 m/s 0.5 mm 22.0° 1012.1 hPa 2.1 m/s 0.0 mm 17.7° 1013.5 hPa 1.6 m/s
 05:34     20:46    Daglengte: 15:12 Morgen
02:00 19.9° 1013.8 hPa 2.8 m/s 7.4 mm 17.5° 1013.8 hPa 3.9 m/s 109.6 mm 19.4° 1014.5 hPa 2.9 m/s 0.2 mm 20.4° 1013.2 hPa 2.1 m/s 0.0 mm 17.9° 1015.2 hPa 4.4 m/s
05:00 18.7° 1014.7 hPa 2.3 m/s 0.0 mm 14.9° 1013.8 hPa 1.7 m/s 112.1 mm 18.9° 1015.3 hPa 1.9 m/s 0.0 mm 20.2° 1014.2 hPa 2.4 m/s 0.0 mm 16.7° 1015.8 hPa 2.9 m/s
08:00 19.6° 1015.8 hPa 2.5 m/s 0.0 mm 18.0° 1015.7 hPa 3.3 m/s 112.1 mm 19.7° 1016.5 hPa 2.3 m/s 0.0 mm 20.4° 1014.9 hPa 3.2 m/s 0.0 mm 18.3° 1016.8 hPa 1.4 m/s
11:00 22.1° 1015.8 hPa 2.0 m/s 0.0 mm 21.8° 1015.5 hPa 1.4 m/s 112.1 mm 22.0° 1016.6 hPa 2.2 m/s 0.0 mm 23.1° 1015.0 hPa 2.2 m/s 0.0 mm 23.7° 1016.0 hPa 0.7 m/s
14:00 25.6° 1014.1 hPa 0.6 m/s 0.0 mm 25.7° 1014.4 hPa 0.8 m/s 112.1 mm 25.4° 1015.2 hPa 1.3 m/s 0.0 mm 26.5° 1013.5 hPa 0.6 m/s 0.0 mm 26.7° 1014.2 hPa 1.7 m/s
17:00 27.1° 1012.5 hPa 1.0 m/s 0.0 mm 27.2° 1012.7 hPa 0.4 m/s 112.2 mm 27.0° 1013.4 hPa 1.1 m/s 0.0 mm 27.7° 1012.4 hPa 1.6 m/s 0.0 mm 26.9° 1012.7 hPa 2.4 m/s
20:00 25.4° 1012.6 hPa 1.4 m/s 0.0 mm 25.6° 1011.7 hPa 0.2 m/s 112.8 mm 25.6° 1013.2 hPa 0.5 m/s 0.0 mm 25.8° 1012.6 hPa 2.3 m/s 0.0 mm 23.4° 1011.6 hPa 1.3 m/s
23:00 21.6° 1013.7 hPa 1.1 m/s 0.0 mm 20.1° 1012.5 hPa 2.3 m/s 116.9 mm 21.0° 1013.9 hPa 0.7 m/s 0.0 mm 21.9° 1014.2 hPa 1.5 m/s 0.0 mm 18.6° 1014.7 hPa 2.8 m/s
 05:35     20:44    Daglengte: 15:09 Woensdag 28 Jul
02:00 19.4° 1013.3 hPa 0.9 m/s 0.0 mm 19.2° 1013.6 hPa 5.9 m/s 117.2 mm 18.7° 1012.9 hPa 0.3 m/s 0.0 mm 19.3° 1014.7 hPa 0.9 m/s 0.0 mm 17.9° 1015.1 hPa 1.8 m/s
05:00 18.4° 1013.1 hPa 0.7 m/s 0.0 mm 16.8° 1013.7 hPa 2.3 m/s 117.2 mm 18.4° 1012.5 hPa 0.6 m/s 0.0 mm 17.9° 1015.3 hPa 0.6 m/s 0.0 mm 17.2° 1014.9 hPa 0.6 m/s
08:00 20.1° 1014.4 hPa 1.4 m/s 17.3 mm 19.4° 1013.2 hPa 2.0 m/s 117.2 mm 18.3° 1014.5 hPa 2.6 m/s 3.1 mm 20.6° 1015.8 hPa 1.3 m/s 0.0 mm 18.7° 1014.7 hPa 1.0 m/s
11:00 22.4° 1014.0 hPa 2.8 m/s 29.8 mm 24.2° 1013.6 hPa 3.7 m/s 117.2 mm 21.0° 1015.1 hPa 2.8 m/s 1.7 mm 22.3° 1014.5 hPa 3.3 m/s
14:00 24.5° 1013.5 hPa 4.2 m/s 13.2 mm 25.8° 1012.6 hPa 4.7 m/s 117.2 mm 23.8° 1014.1 hPa 3.0 m/s 0.1 mm 22.4° 1015.2 hPa 3.5 m/s
17:00 21.6° 1014.4 hPa 5.0 m/s 0.0 mm 20.5° 1013.8 hPa 5.8 m/s 122.2 mm 21.5° 1015.3 hPa 5.0 m/s 0.1 mm 20.8° 1016.1 hPa 2.0 m/s
20:00 19.5° 1015.2 hPa 2.5 m/s 28.7 mm 21.1° 1013.4 hPa 0.7 m/s 125.4 mm 19.5° 1015.4 hPa 2.8 m/s 0.0 mm 17.5° 1016.7 hPa 0.8 m/s
23:00 17.6° 1015.6 hPa 1.7 m/s 0.0 mm 17.5° 1013.8 hPa 1.9 m/s 125.4 mm 17.3° 1015.8 hPa 1.1 m/s 0.0 mm 15.4° 1016.5 hPa 0.6 m/s
 05:37     20:43    Daglengte: 15:06 Donderdag 29 Jul
02:00 16.6° 1015.0 hPa 1.5 m/s 0.0 mm 17.2° 1013.3 hPa 2.2 m/s 125.4 mm 15.6° 1015.9 hPa 0.8 m/s 0.0 mm 14.6° 1016.1 hPa 0.6 m/s
05:00 15.6° 1014.9 hPa 1.0 m/s 0.0 mm 16.6° 1012.6 hPa 2.7 m/s 125.4 mm 14.3° 1016.1 hPa 0.3 m/s 0.0 mm 14.1° 1015.5 hPa 1.3 m/s
08:00 17.5° 1015.1 hPa 0.5 m/s 0.0 mm 20.8° 1012.3 hPa 2.1 m/s 125.4 mm 16.2° 1016.2 hPa 0.2 m/s 0.0 mm 17.4° 1014.7 hPa 1.3 m/s
11:00 23.1° 1014.9 hPa 0.7 m/s 0.0 mm 26.0° 1011.7 hPa 1.7 m/s 125.4 mm 22.3° 1015.7 hPa 0.4 m/s 0.0 mm 23.4° 1013.8 hPa 1.8 m/s
14:00 26.4° 1013.4 hPa 2.8 m/s 0.0 mm 29.3° 1010.5 hPa 2.7 m/s 125.4 mm 25.7° 1014.2 hPa 2.9 m/s 0.0 mm 27.1° 1011.9 hPa 1.6 m/s
17:00 27.9° 1010.7 hPa 1.6 m/s 15.8 mm 27.9° 1010.7 hPa 1.6 m/s 15.8 mm
20:00 23.2° 1010.6 hPa 2.7 m/s 15.8 mm 23.2° 1010.6 hPa 2.7 m/s 15.8 mm
23:00 18.7° 1014.2 hPa 3.2 m/s 21.2 mm 18.7° 1014.2 hPa 3.2 m/s 21.2 mm
 05:38     20:42    Daglengte: 15:04 Vrijdag 30 Jul
02:00 17.2° 1015.1 hPa 2.3 m/s 28.9 mm 17.2° 1015.1 hPa 2.3 m/s 28.9 mm
05:00 15.8° 1015.3 hPa 3.1 m/s 30.4 mm 15.8° 1015.3 hPa 3.1 m/s 30.4 mm
08:00 17.0° 1015.2 hPa 2.2 m/s 30.4 mm 17.0° 1015.2 hPa 2.2 m/s 30.4 mm
11:00 20.3° 1014.8 hPa 3.0 m/s 30.4 mm 20.3° 1014.8 hPa 3.0 m/s 30.4 mm
14:00 22.8° 1013.0 hPa 3.2 m/s 30.5 mm 22.8° 1013.0 hPa 3.2 m/s 30.5 mm
17:00 22.6° 1012.5 hPa 3.3 m/s 31.0 mm 22.6° 1012.5 hPa 3.3 m/s 31.0 mm
20:00 19.1° 1012.6 hPa 2.8 m/s 31.2 mm 19.1° 1012.6 hPa 2.8 m/s 31.2 mm
23:00 17.4° 1014.0 hPa 1.6 m/s 31.9 mm 17.4° 1014.0 hPa 1.6 m/s 31.9 mm
 05:39     20:40    Daglengte: 15:01 Zaterdag 31 Jul
02:00 15.4° 1013.6 hPa 1.5 m/s 31.9 mm 15.4° 1013.6 hPa 1.5 m/s 31.9 mm
05:00 14.5° 1013.2 hPa 1.0 m/s 31.9 mm 14.5° 1013.2 hPa 1.0 m/s 31.9 mm
08:00 16.8° 1013.0 hPa 0.8 m/s 31.9 mm 16.8° 1013.0 hPa 0.8 m/s 31.9 mm
11:00 21.7° 1012.5 hPa 3.2 m/s 31.9 mm 21.7° 1012.5 hPa 3.2 m/s 31.9 mm
14:00 18.7° 1012.6 hPa 3.1 m/s 32.2 mm 18.7° 1012.6 hPa 3.1 m/s 32.2 mm
17:00 20.6° 1011.8 hPa 1.6 m/s 32.5 mm 20.6° 1011.8 hPa 1.6 m/s 32.5 mm
20:00 17.5° 1011.0 hPa 2.1 m/s 32.5 mm 17.5° 1011.0 hPa 2.1 m/s 32.5 mm
23:00 14.0° 1011.1 hPa 1.2 m/s 32.5 mm 14.0° 1011.1 hPa 1.2 m/s 32.5 mm
 05:40     20:39    Daglengte: 14:59 Zondag 01 Aug
02:00 14.1° 1011.4 hPa 1.6 m/s 35.2 mm 14.1° 1011.4 hPa 1.6 m/s 35.2 mm
05:00 14.2° 1010.1 hPa 1.2 m/s 37.7 mm 14.2° 1010.1 hPa 1.2 m/s 37.7 mm
08:00 14.5° 1009.8 hPa 1.4 m/s 39.3 mm 14.5° 1009.8 hPa 1.4 m/s 39.3 mm
11:00 14.3° 1010.1 hPa 3.3 m/s 50.3 mm 14.3° 1010.1 hPa 3.3 m/s 50.3 mm
14:00 15.6° 1011.5 hPa 3.4 m/s 56.4 mm 15.6° 1011.5 hPa 3.4 m/s 56.4 mm
17:00 17.0° 1011.8 hPa 3.5 m/s 58.4 mm 17.0° 1011.8 hPa 3.5 m/s 58.4 mm
20:00 16.0° 1011.7 hPa 4.7 m/s 60.0 mm 16.0° 1011.7 hPa 4.7 m/s 60.0 mm
23:00 13.7° 1014.2 hPa 3.5 m/s 60.6 mm 13.7° 1014.2 hPa 3.5 m/s 60.6 mm
 05:42     20:37    Daglengte: 14:55 Maandag 02 Aug
02:00 12.2° 1015.1 hPa 2.2 m/s 60.6 mm 12.2° 1015.1 hPa 2.2 m/s 60.6 mm
05:00 11.2° 1015.6 hPa 1.7 m/s 60.6 mm 11.2° 1015.6 hPa 1.7 m/s 60.6 mm
08:00 14.2° 1016.3 hPa 1.9 m/s 60.6 mm 14.2° 1016.3 hPa 1.9 m/s 60.6 mm
11:00 19.1° 1015.8 hPa 3.1 m/s 60.6 mm 19.1° 1015.8 hPa 3.1 m/s 60.6 mm
14:00 22.1° 1014.1 hPa 2.4 m/s 60.6 mm 22.1° 1014.1 hPa 2.4 m/s 60.6 mm
20:00 18.8° 1013.1 hPa 1.1 m/s 60.7 mm 18.8° 1013.1 hPa 1.1 m/s 60.7 mm
 05:43     20:36    Daglengte: 14:53 Dinsdag 03 Aug
02:00 14.8° 1014.0 hPa 1.1 m/s 61.0 mm 14.8° 1014.0 hPa 1.1 m/s 61.0 mm
08:00 14.6° 1014.4 hPa 1.0 m/s 66.3 mm 14.6° 1014.4 hPa 1.0 m/s 66.3 mm
14:00 16.0° 1015.5 hPa 3.2 m/s 74.4 mm 16.0° 1015.5 hPa 3.2 m/s 74.4 mm
20:00 15.8° 1014.2 hPa 0.7 m/s 76.1 mm 15.8° 1014.2 hPa 0.7 m/s 76.1 mm
 05:44     20:34    Daglengte: 14:50 Woensdag 04 Aug
02:00 11.6° 1015.8 hPa 0.7 m/s 76.1 mm 11.6° 1015.8 hPa 0.7 m/s 76.1 mm
08:00 14.1° 1014.4 hPa 0.9 m/s 76.1 mm 14.1° 1014.4 hPa 0.9 m/s 76.1 mm
14:00 20.3° 1012.8 hPa 2.2 m/s 76.1 mm 20.3° 1012.8 hPa 2.2 m/s 76.1 mm
20:00 16.8° 1012.5 hPa 1.7 m/s 76.1 mm 16.8° 1012.5 hPa 1.7 m/s 76.1 mm
 05:46     20:33    Daglengte: 14:47 Donderdag 05 Aug
02:00 12.5° 1014.5 hPa 0.2 m/s 76.1 mm 12.5° 1014.5 hPa 0.2 m/s 76.1 mm
08:00 16.7° 1016.2 hPa 0.8 m/s 0.6 mm
14:00 23.8° 1014.4 hPa 1.6 m/s 0.8 mm
20:00 19.3° 1014.3 hPa 1.0 m/s 1.8 mm
 05:47     20:31    Daglengte: 14:44 Vrijdag 06 Aug
02:00 15.5° 1015.1 hPa 0.9 m/s 1.0 mm
08:00 16.5° 1014.9 hPa 1.2 m/s 0.6 mm
14:00 21.3° 1013.8 hPa 2.2 m/s 1.8 mm
20:00 17.7° 1013.9 hPa 2.0 m/s 3.4 mm
 05:48     20:30    Daglengte: 14:42 Zaterdag 07 Aug
02:00 14.6° 1015.4 hPa 1.7 m/s 2.9 mm
08:00 15.5° 1015.4 hPa 1.7 m/s 1.5 mm
14:00 20.4° 1014.2 hPa 2.3 m/s 2.3 mm
20:00 17.1° 1014.6 hPa 1.6 m/s 2.0 mm
 05:50     20:28    Daglengte: 14:38 Zondag 08 Aug
02:00 14.0° 1016.4 hPa 1.7 m/s 1.4 mm
08:00 15.3° 1016.4 hPa 1.5 m/s 0.7 mm
14:00 21.3° 1015.2 hPa 2.3 m/s 0.0 mm
20:00 17.5° 1015.8 hPa 1.3 m/s 1.1 mm
 05:51     20:26    Daglengte: 14:35 Maandag 09 Aug
02:00 14.1° 1017.8 hPa 1.2 m/s 0.4 mm
08:00 15.8° 1018.2 hPa 1.3 m/s 0.6 mm
14:00 22.6° 1017.3 hPa 2.1 m/s 1.1 mm
20:00 18.4° 1017.8 hPa 1.1 m/s 1.3 mm
 05:52     20:25    Daglengte: 14:33 Dinsdag 10 Aug
02:00 14.4° 1019.8 hPa 1.1 m/s 0.6 mm
08:00 16.2° 1019.8 hPa 1.1 m/s 0.4 mm
14:00 23.2° 1018.3 hPa 1.6 m/s 0.7 mm
FMI Hirlam - 7.5 km EWN WRFDA - 12 km DWD ICON - 7 km GFS - 25 km Basiskaart






























































Updatetijd (Europe/Amsterdam) Resolutie Lengte Stap
FMI Hirlam 14:00, 20:00, 02:00, 08:00 7.5 km 49h 1h
EWN WRFDA 10:30, 16:30, 22:30, 04:30 12 km 73h 1h
DWD ICON 11:45, 17:45, 23:45, 05:45 7 km 75h 1h
GFS 08:30, 14:30, 20:30, 02:30 25 km 237h 3h
30+ mm
25-30 mm
20-25 mm
15-20 mm
10-15 mm
6-10 mm
4-6 mm
2-4 mm
1-2 mm
0.5-1 mm
0.2-0.5 mm
0.1-0.2 mm
30+ mm
25-30 mm
20-25 mm
15-20 mm
10-15 mm
6-10 mm
4-6 mm
2-4 mm
1-2 mm
0.5-1 mm
0.2-0.5 mm
0.1-0.2 mm
Sneeuwval
Natte sneeuw
Hagel
Vorst
30+ mm
25-30 mm
20-25 mm
15-20 mm
10-15 mm
6-10 mm
4-6 mm
2-4 mm
1-2 mm
0.5-1 mm
0.2-0.5 mm
0.1-0.2 mm
Sneeuwval
Natte sneeuw
Hagel
Vorst
Onweer
50 mm
40 mm
30 mm
26 mm
22 mm
18 mm
14 mm
10 mm
9 mm
8 mm
7 mm
6 mm
5 mm
4.5 mm
4 mm
3.5 mm
3 mm
2.5 mm
2 mm
1.5 mm
1 mm
0.8 mm
0.6 mm
0.4 mm
0.2 mm
0.05 mm
35°
30°
25°
20°
15°
10°
-5°
-10°
-15°
-20°
-25°
-30°
-35°
33> m/s
29 m/s
25 m/s
21 m/s
17 m/s
14 m/s
11 m/s
8 m/s
5 m/s
3 m/s
0 m/s
2600 J/kg
2400 J/kg
2200 J/kg
2000 J/kg
1800 J/kg
1600 J/kg
1400 J/kg
1200 J/kg
1000 J/kg
800 J/kg
600 J/kg
400 J/kg
200 J/kg
70 dBZ
65 dBZ
60 dBZ
55 dBZ
50 dBZ
45 dBZ
40 dBZ
35 dBZ
30 dBZ
25 dBZ
20 dBZ
15 dBZ
10 dBZ
5 dBZ
-1 K
-2 K
-3 K
-4 K
-5 K
-6 K
-7 K
-8 K
-9 K
950 m²/s²
900 m²/s²
850 m²/s²
800 m²/s²
750 m²/s²
700 m²/s²
650 m²/s²
600 m²/s²
550 m²/s²
500 m²/s²
450 m²/s²
400 m²/s²
350 m²/s²
300 m²/s²
250 m²/s²
200 m²/s²
150 m²/s²
100 m²/s²
46 m/s
44 m/s
42 m/s
40 m/s
38 m/s
36 m/s
34 m/s
32 m/s
30 m/s
28 m/s
26 m/s
24 m/s
22 m/s
20 m/s
16 m/s
12 m/s
8 m/s
4 m/s
30 m/s
28 m/s
26 m/s
24 m/s
22 m/s
20 m/s
18 m/s
16 m/s
14 m/s
12 m/s
10 m/s
8 m/s
6 m/s
4 m/s
2 m/s
3.0
2.8
2.6
2.4
2.2
2.0
1.8
1.6
1.4
1.2
1.0
0.8
0.6
0.4
0.2
15
14
13
12
11
10
9
8
7
6